This is the latest recevied weather packets stored in our database for station/object dl1wer-13. If no packets are shown the sender has not sent any weather packets the latest 10 day(s).
| Time | Temp. | Humidity | Pressure | Rain* | Wind** | Luminosity | Snow |
|---|---|---|---|---|---|---|---|
| 1777272012 | 11.11° C | 64% | 1047.4 hPa | 0 mm | - | - | - |
| 1777271413 | 10° C | 67% | 1047.3 hPa | 0 mm | - | - | - |
| 1777270812 | 8.33° C | 70% | 1047.4 hPa | 0 mm | - | - | - |
| 1777270212 | 7.78° C | 71% | 1047.4 hPa | 0 mm | - | - | - |
| 1777269613 | 7.22° C | 80% | 1047.4 hPa | 0 mm | - | - | - |
| 1777269012 | 6.11° C | 81% | 1047.4 hPa | 0 mm | - | - | - |
| 1777268413 | 5° C | 81% | 1047.4 hPa | 0 mm | - | - | - |
| 1777267813 | 5° C | 83% | 1047.3 hPa | 0 mm | - | - | - |
| 1777267212 | 4.44° C | 86% | 1047.4 hPa | 0 mm | - | - | - |
| 1777266613 | 3.89° C | 89% | 1047.5 hPa | 0 mm | - | - | - |
| 1777266012 | 3.33° C | 90% | 1047.6 hPa | 0 mm | - | - | - |
| 1777265414 | 2.78° C | 91% | 1047.3 hPa | 0 mm | - | - | - |
| 1777264812 | 2.22° C | 91% | 1047.3 hPa | 0 mm | - | - | - |
| 1777264212 | 2.22° C | 91% | 1047.4 hPa | 0 mm | - | - | - |
| 1777263612 | 2.22° C | 90% | 1047.3 hPa | 0 mm | - | - | - |
| 1777263012 | 2.22° C | 90% | 1047 hPa | 0 mm | - | - | - |
| 1777262413 | 2.22° C | 90% | 1046.9 hPa | 0 mm | - | - | - |
| 1777261812 | 2.22° C | 90% | 1046.7 hPa | 0 mm | - | - | - |
| 1777261212 | 2.22° C | 90% | 1047.1 hPa | 0 mm | - | - | - |
| 1777260613 | 2.78° C | 90% | 1047 hPa | 0 mm | - | - | - |
| 1777260012 | 2.78° C | 89% | 1046.9 hPa | 0 mm | - | - | - |
| 1777259412 | 2.78° C | 89% | 1046.7 hPa | 0 mm | - | - | - |
| 1777258813 | 2.78° C | 88% | 1047 hPa | 0 mm | - | - | - |
| 1777258212 | 2.78° C | 88% | 1047.1 hPa | 0 mm | - | - | - |
| 1777256412 | 3.33° C | 87% | 1046.8 hPa | 0 mm | - | - | - |
* Rain latest hour (hover to see other rain measurements)
** Current wind speed in m/s (hover to see current wind gust speed)